Location: Grandview
(34.8900°N, 117.1058°W)
Time: 00:41:28
(UTC-07:00)

Vanguard 2 Rocket - All Passes

Search period start: 23 April 2018 00:00
Search period end: 03 May 2018 00:00
Orbit: 553 x 3328 km, 32.9° (Epoch: 22 April)

Date Brightness Start Highest point End Pass type
(mag) Time Alt. Az. Time Alt. Az. Time Alt. Az.
23 Apr - 01:13:52 10° SSE 01:21:03 16° SE 01:29:53 10° E visible
23 Apr - 03:21:15 10° SW 03:34:55 50° SE 03:53:42 10° ENE visible
23 Apr - 05:34:40 10° WSW 05:52:20 79° SSE 06:12:28 10° E visible
23 Apr - 07:51:22 10° W 08:11:43 83° S 08:29:11 10° ESE daylight
23 Apr - 10:10:09 10° WNW 10:29:38 59° SSW 10:43:09 10° SE daylight
23 Apr - 12:31:57 10° W 12:43:53 23° SW 12:52:37 10° S daylight
24 Apr - 02:22:40 10° SSW 02:34:13 37° SE 02:50:40 10° E visible
24 Apr - 04:34:26 10° WSW 04:50:13 71° SSE 05:10:36 10° E visible
24 Apr - 06:49:55 10° W 07:09:13 85° S 07:28:20 10° E daylight
24 Apr - 09:07:46 10° W 09:28:07 70° SSW 09:43:37 10° ESE daylight
24 Apr - 11:27:54 10° W 11:43:54 35° SW 11:55:08 10° SSE daylight
25 Apr - 01:25:00 10° S 01:34:08 25° SE 01:46:47 10° E visible
25 Apr - 03:34:50 10° SW 03:48:37 61° SSE 04:08:16 10° E visible
25 Apr - 05:48:59 10° WSW 06:06:41 83° S 06:26:56 10° E daylight
25 Apr - 08:05:50 10° W 08:26:03 78° SSW 08:43:29 10° ESE daylight
25 Apr - 10:24:45 10° W 10:43:17 48° SW 10:56:40 10° SSE daylight
25 Apr - 12:49:18 10° W 12:56:58 15° SW 13:03:21 10° SSW daylight
26 Apr - 00:29:09 10° SSE 00:34:33 14° SE 00:41:09 10° E visible
26 Apr - 02:35:50 10° SW 02:47:39 49° SE 03:05:30 10° ENE visible
26 Apr - 04:48:37 10° WSW 05:04:24 79° SSE 05:25:03 10° E visible
26 Apr - 07:04:23 10° W 07:23:38 83° S 07:42:45 10° ESE daylight
26 Apr - 09:22:15 10° WNW 09:42:01 59° SSW 09:57:27 10° SE daylight
26 Apr - 11:43:30 10° W 11:57:05 25° SW 12:07:26 10° S daylight
27 Apr - 01:37:31 10° SSW 01:47:21 35° SE 02:02:15 10° E visible
27 Apr - 03:48:47 10° WSW 04:02:35 71° SSE 04:22:43 10° E visible
27 Apr - 06:03:26 10° W 06:21:07 84° S 06:41:23 10° E daylight
27 Apr - 08:20:17 10° W 08:40:12 69° SSW 08:57:34 10° ESE daylight
27 Apr - 10:39:40 10° W 10:56:40 37° SW 11:09:39 10° SSE daylight
28 Apr - 00:40:07 10° S 00:47:40 23° SE 00:58:18 10° E visible
28 Apr - 02:49:30 10° SW 03:01:22 60° SSE 03:20:02 10° E visible
28 Apr - 05:02:59 10° W 05:18:45 83° S 05:39:30 10° E visible
28 Apr - 07:18:51 10° W 07:37:57 77° SSW 07:57:00 10° ESE daylight
28 Apr - 09:36:51 10° W 09:55:41 48° SW 10:10:52 10° SSE daylight
28 Apr - 12:00:40 10° W 12:10:11 16° SW 12:18:12 10° SSW daylight
28 Apr - 23:45:08 10° SE 23:48:25 12° SE 23:52:13 10° ESE visible
29 Apr - 01:50:47 10° SW 02:00:49 47° SE 02:17:04 10° E visible
29 Apr - 04:03:01 10° WSW 04:16:48 79° SSE 04:37:09 10° E visible
29 Apr - 06:17:55 10° W 06:35:32 82° S 06:55:47 10° ESE daylight
29 Apr - 08:34:46 10° W 08:54:07 59° SSW 09:11:18 10° SE daylight
29 Apr - 10:55:16 10° W 11:09:54 26° SW 11:21:48 10° S daylight
30 Apr - 00:52:41 10° SSW 01:00:56 33° SE 01:13:49 10° E visible
30 Apr - 03:03:32 10° WSW 03:15:22 71° SSE 03:34:28 10° E visible
30 Apr - 05:17:27 10° W 05:33:11 84° S 05:53:57 10° E visible
30 Apr - 07:33:19 10° W 07:52:06 69° SSW 08:11:00 10° SE daylight
30 Apr - 09:51:48 10° W 10:09:07 37° SW 10:23:42 10° SSE daylight
30 Apr - 23:55:34 10° S 00:01:34 20° SE 00:09:58 10° E visible
01 May - 02:04:31 10° SW 02:14:35 59° SSE 02:31:37 10° E visible
01 May - 04:17:24 10° W 04:31:10 83° S 04:51:36 10° E visible
01 May - 06:32:23 10° W 06:49:51 76° SSW 07:10:00 10° ESE daylight
01 May - 08:49:25 10° W 09:07:48 48° SW 09:24:35 10° SSE daylight
01 May - 11:12:23 10° W 11:23:05 17° SW 11:32:28 10° SSW daylight
02 May - 01:06:01 10° SW 01:14:27 45° SE 01:28:39 10° E visible
02 May - 03:17:48 10° WSW 03:29:37 79° SSE 03:48:54 10° E visible
02 May - 05:31:55 10° W 05:47:37 81° S 06:08:18 10° ESE visible
02 May - 07:47:51 10° W 08:06:03 58° SSW 08:24:38 10° SE daylight
02 May - 10:07:27 10° W 10:22:26 27° SW 10:35:40 10° S daylight
